Find Kosmos-1287

NORAD ID: 12636 Int'l Des: 1981-074 Owner: GUKOS Country: SU operational
LEOCIRCULAR

Current View

Loading 3D Globe...

About Kosmos-1287

Description loading...

Upcoming Passes

Passes for default location (London). Set your location on the main map for personalized predictions.

Altitude History

Loading altitude history...

Two-Line Element Set

1 12636U 81074A 26151.17615694 .00000006 00000-0 15454-3 0 9990
2 12636 74.0332 226.1165 0030368 34.3267 325.9736 12.44354723 36310
Epoch: May 31, 2026 • Age: 5 hours

Current Status

Altitude 1524.0 km
Velocity 7.09 km/s
Sub-Earth Point -32.97°S, 29.1°E
Launch Date Aug 6, 1981
Age 44.8 years
Type other

Technical Details

Classification Payload
Mass 60.00 kg
Dry Mass 60.00 kg
Total Mass 60.00 kg
Length 0.80 m
Diameter 0.80 m
Span 0.80 m
Shape Poly
Manufacturer NPOPM
Bus Type Strela-1 11F625
Phase Status In Orbit
Owner/State GUKOS/SU

Most Searched